Volver al catálogo

OPS 4682 DEB

ActivoPO
NORAD 38418·DEBRIS·🇺🇸 United States

Lanzado Apr 3, 1965 desde Vandenberg Space Force Base

Loading…

Próximos Pases (próximas 24 horas)

TLE

ActualizadoSource: Space-Track

Época: Sep 12, 2026, 13:32 UTC

1 38418U 65027DX  26255.56430628  .00000034  00000-0  86573-4 0  9998
2 38418  90.2479  10.7065 0027192 347.5227  12.5220 13.01032149562916

Sigue OPS 4682 DEB en tiempo real con AllMySat

Download on the App Store